Terug naar catalogus

USA 40 R/B DEB

LostHEO
NORAD 23365·DEBRIS·🇺🇸 United States

Gelanceerd Aug 8, 1989 vanaf Cape Canaveral Space Force Station

Loading…

Volgende Passages (komende 24 uur)

TLE

VerouderdSource: Space-Track

Epoch: Feb 13, 2023, 10:25 UTC

1 23365U 89061AM  23044.43410409  .00010013  00000-0  66137-2 0  9991
2 23365  57.0669 325.3567 2830482 211.1854 128.5450  9.22543584114524

Volg USA 40 R/B DEB in realtime met AllMySat

Download on the App Store